sat.trackr.live / text

‹ back to catalog

STARLINK-34462

NORAD 64493 · 2025-133X

PAYLOAD ACTIVE UNKNOWN

§ Identity

Operator
Country
US
Launch date
2025-06-23
Launch site
AFETR
Launch vehicle
Mass (kg)
RCS (m²)

Purposes: comms

External: N2YO · Heavens-Above · Gunter

§ Orbital elements

Epoch: 2026-05-25T04:25:56.314848Z

Period
93.79 min
Inclination
53.1597°
Eccentricity
0.0001324
Mean motion
15.35393660 rev/d
Perigee alt
458.8 km
Apogee alt
460.7 km
Semi-major
6,837.9 km
B*
7.0235e-4
RAAN
119.1034°
Arg perigee
70.8700°
Mean anomaly
289.2447°
Rev number
5,293

§ Raw data

STARLINK-344621 64493U 25133X   26145.18467957  .00024192  00000+0  70235-3 0  99922 64493  53.1597 119.1034 0001324  70.8700 289.2447 15.35393660 52935

JSON: /api/v1/satellites/64493 · /tle

For live sub-satellite position, see the globe view (requires WebGL).

§ Visibility from observer

Set your observer location to see the next 7 days of passes ≥ 10°. The values pass through the URL so the page stays shareable.

No JS? Fill the form by hand. The geolocation button needs JavaScript.